This is the latest recevied weather packets stored in our database for station/object WX2NJ. If no packets are shown the sender has not sent any weather packets the latest 10 day(s).
| Time | Temp. | Humidity | Pressure | Rain* | Wind** | Luminosity | Snow |
|---|---|---|---|---|---|---|---|
| 1777918645 | 20.56° C | 51% | 1015.1 hPa | 0 mm | - | 131 W/m² | - |
| 1777918342 | 21.11° C | 50% | 1015.3 hPa | 0 mm | - | 756 W/m² | - |
| 1777918041 | 21.11° C | 48% | 1015.3 hPa | 0 mm | - | 713 W/m² | - |
| 1777917739 | 20.56° C | 49% | 1015.4 hPa | 0 mm | - | 805 W/m² | - |
| 1777917436 | 21.11° C | 48% | 1015.3 hPa | 0 mm | - | 783 W/m² | - |
| 1777917133 | 21.67° C | 47% | 1015.4 hPa | 0 mm | - | 741 W/m² | - |
| 1777916831 | 21.11° C | 51% | 1015.5 hPa | 0 mm | - | 729 W/m² | - |
| 1777916529 | 22.22° C | 36% | 1015.5 hPa | 0 mm | - | 99 W/m² | - |
| 1777916225 | 23.33° C | 28% | 1015.6 hPa | 0 mm | - | 811 W/m² | - |
| 1777915922 | 22.22° C | 38% | 1015.5 hPa | 0 mm | - | 676 W/m² | - |
| 1777915618 | 23.33° C | 26% | 1015.8 hPa | 0 mm | - | 773 W/m² | - |
| 1777915315 | 22.78° C | 28% | 1015.5 hPa | 0 mm | - | 574 W/m² | - |
| 1777915011 | 23.33° C | 28% | 1015.6 hPa | 0 mm | - | 598 W/m² | - |
| 1777914709 | 23.33° C | 28% | 1015.8 hPa | 0 mm | - | 690 W/m² | - |
| 1777914405 | 22.78° C | 27% | 1015.8 hPa | 0 mm | - | 640 W/m² | - |
| 1777914103 | 22.78° C | 27% | 1015.9 hPa | 0 mm | - | 755 W/m² | - |
| 1777913798 | 23.33° C | 28% | 1015.9 hPa | 0 mm | - | 758 W/m² | - |
| 1777913495 | 22.78° C | 29% | 1016 hPa | 0 mm | - | 506 W/m² | - |
| 1777913192 | 22.78° C | 30% | 1016.1 hPa | 0 mm | - | 365 W/m² | - |
| 1777912888 | 22.78° C | 25% | 1016.3 hPa | 0 mm | - | 349 W/m² | - |
| 1777912585 | 22.78° C | 26% | 1016.2 hPa | 0 mm | - | 198 W/m² | - |
| 1777912281 | 22.78° C | 29% | 1016.4 hPa | 0 mm | - | 800 W/m² | - |
| 1777911977 | 22.22° C | 26% | 1016.4 hPa | 0 mm | - | 728 W/m² | - |
| 1777911673 | 22.78° C | 26% | 1016.5 hPa | 0 mm | - | 630 W/m² | - |
| 1777911369 | 22.78° C | 29% | 1016.3 hPa | 0 mm | - | 674 W/m² | - |
* Rain latest hour (hover to see other rain measurements)
** Current wind speed in m/s (hover to see current wind gust speed)